Regional Weather Roundup
Issued by NWS Green Bay, WI

Home | Current Version | Previous Version | Graphics & Text | Print | Product List | Glossary Off
Versions: 1 2 3 4 5 6 7 8 9 10 11 12 13 14 15 16 17 18 19 20 21 22 23 24 25 26 27 28 29 30 31 32 33 34 35 36 37 38 39 40 41 42 43 44 45 46 47 48 49 50

000
ASUS43 KGRB 061300
RWRGRB

NORTH-CENTRAL AND NORTHEAST WISCONSIN REGIONAL WEATHER ROUNDUP
NATIONAL WEATHER SERVICE GREEN BAY WI
700 AM CST TUE DEC 06 2016

WIZ005-009-010>012-018-019-061400-
NORTH CENTRAL WISCONSIN

CITY           SKY/WX    TMP DP  RH WIND       PRES   REMARKS
IRONWOOD       LGT SNOW  34  30  85 S12G22    29.61F FOG
MANITOWISH WTR NOT AVBL
ARBOR VITAE    NOT AVBL
EAGLE RIVER    NOT AVBL
LAND O LAKES   NOT AVBL
RHINELANDER    CLOUDY    31  28  89 S9        29.70S
PHILLIPS       NOT AVBL
ANTIGO         NOT AVBL
TOMAHAWK       NOT AVBL
MERRILL        NOT AVBL
$$

WIZ013-073-061400-
NORTHEAST WISCONSIN

CITY           SKY/WX    TMP DP  RH WIND       PRES   REMARKS
IRON MOUNTAIN  CLOUDY    36  32  85 S12       29.74F
MARINETTE      CLOUDY    39  35  86 S10G18    29.80F
$$

WIZ017-030-035>037-045-061400-
CENTRAL WISCONSIN

CITY           SKY/WX    TMP DP  RH WIND       PRES   REMARKS
MEDFORD        NOT AVBL
WAUSAU         CLOUDY    30  28  92 S10       29.73F
MOSINEE        CLOUDY    30  30 100 S12       29.75F FOG
MARSHFIELD     CLOUDY    30  28  92 S14       29.72S FOG
WISC RAPIDS    CLOUDY    31  30  96 S7        29.77S
STEVENS POINT  NOT AVBL
WAUPACA        NOT AVBL
SHAWANO        NOT AVBL
CLINTONVILLE   NOT AVBL
WAUTOMA        CLOUDY    31  29  92 S7        29.80S FOG
$$

WIZ038-039-048-051-061400-
FOX VALLEY

CITY           SKY/WX    TMP DP  RH WIND       PRES   REMARKS
NWS GREEN BAY  CLOUDY    38  35  89 S9        29.79F
APPLETON       CLOUDY    34  34 100 S7        29.78F
OSHKOSH        CLOUDY    33  31  92 W7        29.81S FOG
FOND DU LAC    CLOUDY    35  30  82 SW7       29.81R
$$

WIZ022-050-052-061400-
EAST CENTRAL WISCONSIN

CITY           SKY/WX    TMP DP  RH WIND       PRES   REMARKS
EPHRAIM        NOT AVBL
WASHINGTON ISL NOT AVBL
STURGEON BAY   CLOUDY    37  34  89 SE13      29.81
MANITOWOC      NOT AVBL
SHEBOYGAN      CLOUDY    35  32  88 CALM      29.80F FOG
$$

LMZ563-521-522-541>543-061400-
LAKESHORE

STATION/POSITION TIME  TEMP    WIND        PRES    VSBY  WAVE
                       AIR SEA DIR/SP/G                  HT/PER
                 (UTC) (F)     (DEG/KT/KT) (MB)    (MI)  (FT/S)
SHEBOYGAN LKSHOR 1200   40     150/ 19/ 21 1010.2F
KEWAUNEE LKSHORE 1230   40     170/ 18/ 20 1009.8F
ALGOMA MARINA    1151          200/ 21/ 25   N/A
NORTHPORT PIER   1240   40     150/ 13/ 17 1010.5S
CHAMBERS ISLAND  1240   39     150/  6/ 14 1009.5F
MENOMINEE LKSHOR 1230   40     160/ 14/ 18 1008.9F
$$




USA.gov is the U.S. government's official web portal to all federal, state and local government web resources and services.